Location: Unspecified
(0.0000°N, 0.0000°E)
Time: 06:58:34
(UTC+00:00)

Vanguard 1 - Pass Details

Date: 14 February 2018
Orbit: 650 x 3833 km, 34.3° (Epoch: 24 May)

Event Time Altitude Azimuth Distance (km) Brightness Sun altitude
Exits shadow 02:36:32 38° 173° (S) 3,117 12.5 -52.4°
Drops below altitude 10° 02:48:10 10° 140° (SE) 5,944 14.4 -49.7°
Sets 02:54:10 0° 135° (SE) 7,392 15.1 -48.3°
